Temperature
5 5 5 5 5 5 5 5 5 5 5 5 5 5 5 5 5 5 5 5 5 5 5 5 5 5 4 4 4 4 3 3 3 3 3 3 3 3 3 3 3 3 3
5 5 5 5 4 5 5 5 5 5 5 5 5 5 5 5 4 4 4 4 4 4 4 4 4 4 4 4 3 3 3 3 3 3 3 3 3 3 3 3 3 3 3
4 4 4 4 4 4 4 4 4 4 4 4 4 4 4 4 4 4 4 4 4 4 4 4 4 4 3 3 3 3 3 3 2 2 2 2 2 2 2 2 2 2 2
4 4 4 4 4 4 4 4 4 4 4 4 4 4 4 3 3 3 3 3 3 3 3 3 3 3 3 3 3 2 2 2 2 2 2 2 2 2 2 2 2 2 2
3 3 3 3 3 3 3 3 3 3 3 3 3 3 3 3 3 3 3 3 3 3 3 3 3 3 2 2 2 2 2 2 2 2 2 2 1 1 1 1 1 1 1
3 3 3 3 3 3 3 3 3 3 2 2 2 2 2 2 2 2 2 2 2 2 2 2 2 2 2 2 2 2 2 2 1 1 1 1 1 1 1 0 0 0 0
2 2 2 2 2 2 2 2 2 2 2 2 2 2 2 2 2 2 2 1 1 1 2 2 2 2 1 1 1 1 1 1 1 1 1 1 1 0 0 0 0 0 -0
2 2 2 2 2 2 2 2 2 2 2 2 2 1 1 1 1 1 1 1 1 1 1 1 1 1 1 1 1 1 1 1 1 1 1 1 0 0 0 -0 -0 -0 -0
1 1 2 2 2 2 2 2 2 2 1 1 1 1 1 1 1 1 1 1 1 1 1 1 1 1 1 1 0 1 1 0 0 0 0 0 -0 -0 -0 -0 -1 -1 -1
1 1 1 1 1 1 1 1 1 1 1 1 1 1 0 1 0 0 0 0 0 0 0 0 0 0 0 0 0 0 0 0 0 0 -0 -0 -0 -1 -1 -1 -1 -1 -2
1 1 1 1 1 1 1 1 1 1 1 0 0 0 0 0 0 0 0 -0 -0 -0 0 0 0 -0 -0 -0 -0 -0 -0 -0 -0 -0 -1 -1 -1 -1 -1 -1 -1 -2 -2
0 0 0 0 0 0 0 0 0 0 0 -0 -0 0 -0 -0 -0 -0 -0 -0 -0 -1 -0 -0 -0 -0 -1 -1 -1 -1 -1 -1 -1 -1 -1 -1 -1 -1 -1 -2 -2 -2 -2
-0 -0 -0 -0 -0 -0 -0 -0 -0 -0 -1 -1 -1 -0 -0 -0 -1 -1 -1 -1 -1 -1 -1 -1 -1 -1 -1 -1 -1 -1 -1 -1 -1 -1 -1 -1 -1 -2 -2 -2 -2 -2 -2
-1 -1 -1 -1 -1 -1 -1 -1 -1 -1 -1 -1 -1 -1 -1 -1 -1 -1 -1 -1 -1 -1 -1 -1 -1 -1 -2 -2 -2 -2 -2 -2 -2 -2 -2 -2 -2 -2 -2 -2 -2 -3 -3
-1 -1 -1 -1 -1 -1 -1 -1 -1 -1 -1 -1 -2 -2 -2 -1 -1 -1 -2 -2 -2 -2 -2 -2 -2 -2 -2 -2 -2 -2 -2 -2 -2 -2 -2 -2 -2 -3 -3 -3 -3 -3 -3
-2 -2 -2 -2 -2 -2 -2 -2 -2 -2 -2 -2 -2 -2 -2 -2 -2 -2 -2 -2 -2 -2 -2 -2 -2 -2 -3 -3 -3 -2 -3 -2 -2 -2 -2 -3 -3 -3 -3 -3 -3 -3 -3
-2 -2 -2 -2 -2 -2 -2 -2 -2 -2 -2 -2 -2 -2 -2 -2 -2 -2 -3 -3 -3 -3 -3 -3 -3 -3 -3 -3 -3 -3 -3 -3 -3 -3 -3 -3 -3 -3 -3 -3 -4 -4 -4
-3 -3 -3 -3 -3 -3 -2 -2 -2 -2 -2 -2 -2 -2 -2 -3 -3 -3 -3 -3 -3 -3 -3 -3 -3 -3 -3 -3 -3 -4 -3 -3 -3 -3 -3 -3 -4 -4 -4 -4 -4 -4 -4
-3 -3 -3 -3 -3 -3 -3 -3 -3 -3 -3 -3 -3 -3 -3 -3 -3 -3 -3 -3 -4 -4 -4 -4 -4 -4 -4 -4 -4 -4 -4 -4 -4 -4 -4 -4 -4 -4 -4 -4 -4 -4 -5
-4 -3 -3 -3 -3 -3 -3 -3 -3 -3 -4 -4 -3 -3 -3 -4 -4 -4 -4 -4 -4 -4 -4 -4 -4 -4 -4 -4 -4 -4 -4 -4 -4 -4 -4 -4 -4 -4 -4 -4 -5 -5 -5
-4 -4 -4 -4 -4 -4 -4 -4 -4 -4 -4 -4 -4 -4 -4 -4 -4 -4 -4 -4 -4 -4 -4 -5 -5 -5 -5 -4 -4 -4 -4 -5 -4 -4 -4 -4 -4 -5 -5 -5 -5 -5 -5
-5 -5 -5 -4 -4 -4 -4 -4 -4 -4 -4 -5 -5 -5 -5 -5 -5 -5 -5 -5 -5 -5 -5 -5 -5 -5 -5 -5 -5 -5 -5 -5 -5 -5 -5 -5 -5 -5 -5 -5 -5 -5 -6
-5 -5 -5 -5 -5 -5 -5 -5 -5 -5 -5 -5 -5 -5 -5 -5 -5 -5 -5 -5 -5 -5 -5 -5 -5 -5 -5 -5 -5 -5 -5 -5 -5 -5 -5 -5 -5 -5 -5 -5 -6 -6 -6
-5 -5 -5 -5 -5 -5 -5 -5 -5 -5 -5 -5 -5 -5 -5 -5 -5 -5 -5 -5 -5 -6 -6 -6 -6 -6 -5 -5 -5 -5 -5 -5 -5 -5 -5 -5 -5 -5 -6 -6 -6 -6 -6
-6 -6 -6 -6 -6 -6 -6 -6 -6 -6 -5 -5 -6 -6 -6 -6 -6 -6 -6 -6 -6 -6 -6 -6 -6 -6 -5 -5 -5 -5 -5 -5 -5 -5 -5 -5 -5 -6 -6 -6 -6 -6 -6
-6 -6 -6 -6 -6 -6 -6 -6 -6 -6 -6 -6 -6 -6 -6 -6 -6 -6 -6 -6 -6 -6 -6 -6 -6 -6 -6 -5 -5 -5 -5 -6 -5 -5 -5 -6 -6 -6 -6 -6 -6 -6 -6
Wind_Speed
2 2 2 2 2 2 2 3 3 3 3 4 4 3 3 3 3 3 3 3 3 3 3 4 4 3 3 3 2 2 2 2 4 3 2 2 2 3 5 6 6 6 6
1 2 2 2 2 2 2 2 2 3 3 4 4 4 4 4 4 4 4 4 4 4 4 4 5 4 4 3 3 3 2 2 3 3 2 2 2 2 3 4 5 6 6
1 2 2 2 2 2 2 2 2 2 2 3 3 4 4 4 4 4 4 4 5 5 5 5 5 5 4 3 4 3 3 2 2 3 3 2 2 2 2 3 3 3 5
1 2 2 2 2 2 2 2 2 2 2 2 3 3 4 4 4 4 5 5 5 5 5 5 5 6 6 5 4 4 3 2 2 2 2 2 2 2 1 2 4 3 4
0 0 1 1 1 1 1 1 1 1 2 2 2 2 3 3 4 4 5 4 4 4 4 4 4 5 5 5 4 4 4 3 2 2 2 2 2 2 2 2 3 4 3
0 1 1 1 1 1 1 1 1 1 1 1 2 2 3 3 4 5 4 4 4 4 4 3 3 4 4 5 5 5 4 4 4 3 3 3 4 3 2 2 2 3 3
1 1 1 1 1 2 2 2 2 2 2 2 2 2 3 4 5 5 5 4 4 4 4 3 3 3 3 3 4 5 5 6 5 4 4 5 4 3 3 3 3 3 4
2 2 2 1 2 2 2 3 3 2 3 3 3 3 3 3 4 5 5 4 3 4 4 4 4 4 4 4 3 4 4 4 5 4 5 5 4 4 4 4 4 3 3
2 3 3 2 3 3 3 4 3 3 3 3 3 3 3 4 5 5 4 3 3 3 3 4 4 4 5 4 3 4 3 3 4 5 5 5 4 3 2 0 0 1 3
4 4 3 3 3 4 4 4 3 3 3 3 3 3 4 4 4 5 4 3 3 3 3 4 5 5 5 5 4 4 4 4 2 2 2 2 2 3 3 2 3 2 2
4 3 3 3 3 4 4 3 3 3 2 2 3 3 3 4 4 5 5 3 4 3 3 3 4 6 6 6 5 4 5 4 2 2 2 1 1 2 2 3 3 3 2
3 3 3 3 3 3 3 3 3 3 3 2 2 2 2 3 4 5 6 5 4 4 4 3 4 6 6 5 4 4 4 2 2 2 2 2 2 2 2 3 3 3 3
2 3 3 3 2 3 3 3 3 3 3 2 2 3 2 2 3 5 5 5 4 3 4 5 4 5 4 4 4 4 3 2 2 2 3 3 3 2 2 1 1 1 1
3 3 3 2 2 2 2 3 3 4 3 3 3 3 3 2 2 3 3 3 3 3 2 3 4 3 3 3 3 3 2 3 3 3 3 2 1 1 2 2 1 1 1
3 3 2 2 2 2 2 3 4 4 5 4 4 4 4 4 5 5 3 3 3 3 2 1 1 1 2 2 2 2 2 2 2 2 2 2 2 2 2 1 1 1 1
3 3 2 2 2 2 2 2 3 4 5 5 5 4 4 5 5 5 5 5 4 4 2 2 2 3 3 3 2 2 2 2 2 2 2 2 2 2 2 1 1 1 1
3 3 2 2 2 2 2 2 2 2 2 3 4 5 5 5 5 5 5 4 4 3 2 3 3 3 3 3 3 3 3 3 3 3 3 3 2 2 2 2 2 1 2
3 3 3 3 3 3 3 2 2 2 1 2 2 3 4 4 4 4 4 3 3 2 2 3 3 3 3 3 3 3 3 2 3 3 3 3 3 3 3 3 3 2 2
3 2 2 2 2 2 2 2 2 2 2 2 1 2 2 2 3 3 3 2 3 3 3 3 3 3 3 3 3 3 3 3 3 3 3 3 3 3 3 3 3 3 2
2 3 3 2 2 2 2 2 2 2 2 2 2 2 1 1 1 2 2 2 3 3 3 3 3 3 3 3 3 3 3 3 3 3 3 3 3 3 3 4 3 3 3
1 1 2 2 2 2 2 2 2 2 2 2 2 3 3 2 2 2 2 2 3 3 3 3 3 3 3 3 3 3 3 3 3 3 3 3 3 3 3 3 3 3 2
1 1 1 1 1 1 2 2 2 2 2 2 2 2 3 2 2 2 2 2 2 2 2 3 3 3 3 3 3 3 3 3 3 3 3 3 3 3 3 3 3 3 3
1 1 1 1 1 2 1 1 2 2 2 2 2 2 2 2 2 2 2 2 2 2 2 2 3 3 3 3 4 4 4 4 4 4 3 3 3 3 3 3 3 3 3
2 2 2 1 1 1 1 1 2 2 2 2 2 2 2 2 2 2 2 1 1 2 2 2 3 3 4 4 4 4 5 5 4 4 4 4 4 3 3 3 3 3 3
1 2 2 2 2 2 2 2 2 2 2 2 2 2 2 2 1 1 1 1 1 2 2 3 3 3 3 4 4 4 5 5 4 3 3 3 4 4 3 3 3 3 3
1 1 1 1 1 2 2 2 2 2 2 2 2 2 2 1 1 1 1 1 1 1 2 3 3 3 4 3 4 4 4 4 3 3 2 3 3 3 3 3 3 3 3
Wind_Direction
140 148 146 152 149 154 176 183 176 170 166 171 182 183 183 183 181 182 194 188 193 207 210 206 212 206 204 199 187 190 201 199 236 270 263 284 282 301 314 315 312 312 312
144 140 153 156 152 165 182 186 181 182 180 184 187 192 195 193 189 192 202 200 204 214 216 209 218 208 205 203 198 202 209 209 215 254 272 270 266 285 304 308 313 313 306
106 133 151 159 170 187 196 189 187 186 189 187 189 198 203 199 195 202 205 209 213 219 213 211 216 203 211 212 207 207 212 220 212 222 257 258 267 289 305 308 309 310 310
74 131 164 185 192 196 194 187 188 183 190 203 203 206 206 205 205 208 211 212 218 219 218 217 214 207 211 209 211 211 207 216 222 223 247 261 268 280 284 308 318 318 311
65 112 215 212 192 179 177 180 177 182 201 208 202 204 204 205 204 199 200 198 206 216 220 224 224 218 223 219 219 208 199 209 215 228 251 269 275 283 281 287 301 314 304
244 275 250 198 191 192 190 175 169 193 216 205 208 205 209 221 215 207 199 196 202 209 221 229 231 227 234 238 243 230 213 210 215 223 247 252 262 254 261 279 294 315 297
264 268 256 212 207 218 208 191 196 200 200 212 223 218 225 229 216 212 206 198 200 212 217 221 233 236 228 225 242 240 237 238 228 216 231 242 247 239 249 265 263 270 271
258 266 257 238 226 223 214 210 218 208 206 213 219 220 225 237 224 218 210 197 204 217 218 218 221 225 222 219 221 228 236 242 245 234 228 235 238 233 229 240 248 277 289
249 256 250 236 230 226 224 223 219 209 216 215 204 207 218 240 232 223 211 201 217 229 229 225 223 222 234 231 218 226 245 262 273 262 263 262 260 253 235 182 262 296 293
248 251 247 233 226 229 229 224 214 203 212 210 215 214 220 236 242 228 212 200 216 229 234 234 233 230 233 230 214 216 236 252 249 269 270 265 258 236 226 210 206 233 274
253 250 246 234 233 230 221 214 203 199 199 205 216 226 224 236 247 237 223 207 212 220 229 235 233 236 236 233 225 221 235 239 222 224 226 234 241 239 239 237 221 214 237
249 251 252 247 241 225 208 207 197 189 192 206 219 237 233 233 246 242 235 234 222 217 229 233 235 236 237 236 232 236 241 235 198 208 215 233 240 245 254 251 247 246 245
240 249 254 254 230 215 203 200 195 192 199 216 218 231 244 237 238 241 237 239 235 233 233 236 238 233 227 229 234 233 226 205 195 207 222 239 241 235 232 244 250 274 299
236 248 247 241 227 213 213 204 200 201 205 217 223 231 239 240 232 220 222 234 240 246 243 233 229 220 223 231 231 229 222 210 205 211 219 228 220 211 215 215 214 207 289
230 240 247 239 224 221 226 221 217 219 210 215 222 220 219 235 241 236 229 225 220 229 233 205 189 204 221 227 231 227 222 217 220 209 202 208 213 212 226 218 201 200 232
228 234 236 235 228 224 226 264 267 246 241 238 236 232 240 247 246 238 242 241 235 220 214 205 214 219 223 223 229 236 234 233 223 213 206 210 215 218 231 231 219 224 249
226 237 238 233 228 222 217 217 254 301 270 251 244 246 246 245 241 239 240 237 233 218 220 214 219 225 228 226 227 228 236 243 230 212 215 214 212 219 224 226 229 251 258
235 238 235 228 224 221 218 219 222 231 264 286 273 255 250 248 248 247 243 239 240 234 230 222 225 226 225 228 229 231 235 237 234 220 214 210 208 213 221 226 226 233 247
242 234 226 223 223 219 215 212 217 221 234 253 281 275 259 262 266 261 246 228 223 233 233 228 228 229 233 234 233 231 229 233 235 225 214 209 210 214 225 226 225 236 238
252 234 219 209 207 206 202 206 211 214 228 237 243 252 263 283 267 266 260 228 225 231 227 228 231 233 233 234 236 234 233 234 234 227 219 215 213 215 220 219 216 221 231
258 245 233 216 205 205 207 211 212 215 225 240 256 263 258 243 241 252 251 239 233 231 228 227 230 233 234 234 231 232 233 233 231 232 224 215 210 217 218 214 215 218 223
235 228 215 207 209 211 206 200 206 218 225 234 256 270 270 268 251 253 255 252 246 236 227 224 231 234 231 228 227 231 234 234 231 228 227 218 213 213 209 209 212 215 216
219 215 218 215 204 213 218 205 209 220 231 237 245 256 263 256 256 256 257 259 253 253 249 235 231 239 249 249 241 230 229 231 232 225 221 215 209 209 206 208 208 211 216
207 206 206 207 204 195 200 214 215 224 231 239 249 254 257 258 259 264 267 262 263 265 265 257 250 245 250 264 266 256 251 250 243 230 215 209 206 207 205 206 210 211 209
198 203 205 204 201 207 210 219 222 225 235 244 250 258 264 261 264 271 272 264 261 264 271 276 273 268 261 263 270 269 259 253 249 236 212 203 200 201 201 204 203 201 204
174 184 204 211 210 210 211 220 227 226 231 242 247 254 256 257 260 265 266 265 272 277 283 287 281 283 284 280 271 268 260 250 238 226 203 196 193 197 193 204 200 201 199
Height
1458 1459 1461 1462 1463 1465 1466 1467 1469 1471 1472 1473 1475 1477 1478 1479 1481 1482 1484 1485 1486 1488 1489 1490 1491 1492 1492 1493 1493 1493 1494 1494 1493 1492 1493 1493 1493 1493 1492 1491 1490 1489 1488
1456 1457 1459 1460 1462 1463 1464 1464 1466 1467 1469 1470 1472 1473 1474 1475 1477 1478 1480 1481 1482 1483 1485 1486 1486 1487 1488 1489 1489 1489 1490 1490 1490 1488 1489 1489 1489 1488 1488 1487 1486 1485 1484
1454 1455 1457 1458 1459 1460 1461 1462 1464 1464 1465 1467 1468 1469 1470 1471 1473 1474 1475 1477 1478 1479 1480 1481 1482 1483 1483 1484 1485 1485 1485 1486 1486 1485 1485 1485 1485 1485 1484 1483 1483 1481 1480
1453 1453 1454 1456 1457 1457 1458 1459 1460 1461 1462 1463 1464 1465 1466 1467 1468 1470 1471 1472 1473 1474 1476 1477 1477 1478 1479 1480 1480 1481 1481 1482 1482 1482 1481 1481 1481 1481 1480 1479 1478 1477 1476
1450 1451 1452 1453 1453 1454 1455 1456 1457 1458 1459 1460 1460 1461 1462 1463 1464 1465 1466 1467 1468 1470 1471 1472 1473 1474 1475 1476 1476 1477 1477 1478 1478 1478 1477 1477 1477 1476 1476 1475 1474 1473 1472
1448 1448 1449 1450 1451 1451 1452 1453 1454 1455 1456 1456 1457 1457 1458 1459 1460 1461 1462 1463 1464 1465 1466 1467 1468 1469 1470 1471 1472 1473 1474 1474 1474 1474 1473 1473 1473 1473 1473 1472 1471 1469 1467
1445 1446 1446 1447 1448 1449 1449 1450 1451 1451 1452 1453 1453 1454 1454 1455 1456 1457 1458 1459 1460 1461 1462 1463 1464 1465 1466 1467 1468 1469 1469 1470 1470 1470 1470 1469 1469 1469 1469 1468 1467 1466 1465
1443 1443 1443 1444 1445 1445 1446 1447 1447 1448 1448 1449 1449 1450 1451 1452 1453 1454 1454 1455 1456 1457 1458 1459 1460 1461 1462 1463 1464 1464 1465 1466 1466 1466 1466 1466 1466 1466 1465 1465 1464 1463 1462
1439 1440 1440 1441 1441 1442 1442 1443 1443 1444 1444 1445 1446 1447 1447 1448 1449 1450 1451 1452 1453 1453 1454 1456 1457 1457 1459 1460 1460 1461 1461 1461 1462 1462 1462 1462 1462 1462 1461 1461 1460 1459 1457
1436 1436 1436 1437 1437 1437 1438 1439 1439 1440 1440 1441 1442 1443 1444 1445 1446 1447 1448 1448 1449 1450 1451 1452 1453 1454 1455 1455 1456 1456 1457 1457 1458 1458 1458 1458 1458 1457 1457 1457 1456 1455 1454
1432 1432 1432 1433 1433 1433 1434 1435 1435 1436 1437 1437 1439 1440 1440 1441 1442 1443 1444 1445 1446 1446 1447 1448 1448 1449 1450 1451 1452 1452 1453 1453 1453 1453 1453 1454 1453 1453 1453 1453 1453 1452 1452
1428 1428 1428 1428 1429 1429 1430 1430 1431 1432 1433 1433 1434 1435 1436 1437 1438 1439 1441 1442 1443 1443 1443 1444 1444 1445 1446 1446 1447 1448 1449 1449 1449 1449 1449 1449 1449 1449 1449 1449 1449 1449 1449
1423 1424 1424 1424 1424 1425 1426 1426 1427 1428 1429 1429 1430 1431 1432 1433 1435 1436 1437 1438 1439 1439 1439 1440 1440 1441 1441 1442 1442 1443 1444 1444 1444 1444 1444 1445 1445 1445 1445 1445 1445 1446 1446
1419 1419 1420 1420 1420 1421 1422 1423 1424 1424 1425 1426 1426 1427 1428 1429 1430 1432 1433 1434 1434 1435 1435 1435 1436 1437 1437 1438 1438 1439 1439 1439 1439 1440 1440 1441 1441 1442 1442 1442 1441 1441 1442
1415 1415 1416 1416 1417 1417 1418 1419 1420 1421 1422 1422 1423 1424 1424 1425 1427 1428 1429 1429 1430 1430 1431 1431 1431 1432 1432 1433 1434 1434 1435 1435 1436 1436 1437 1437 1437 1438 1438 1438 1438 1438 1438
1411 1411 1412 1412 1413 1414 1415 1415 1416 1418 1419 1419 1420 1421 1421 1422 1423 1424 1425 1425 1426 1426 1427 1426 1427 1427 1428 1428 1429 1430 1431 1432 1432 1433 1433 1433 1434 1434 1434 1434 1435 1435 1435
1407 1407 1408 1409 1409 1410 1411 1412 1412 1414 1415 1415 1416 1417 1418 1418 1419 1420 1420 1421 1422 1422 1422 1422 1422 1423 1424 1424 1425 1426 1427 1428 1429 1429 1430 1430 1431 1431 1431 1431 1431 1431 1431
1404 1404 1405 1405 1406 1407 1408 1408 1409 1409 1410 1411 1412 1413 1414 1414 1415 1416 1416 1417 1417 1417 1418 1418 1418 1419 1420 1420 1421 1422 1423 1424 1425 1425 1426 1426 1427 1427 1427 1427 1427 1428 1428
1400 1400 1401 1402 1403 1404 1404 1405 1406 1406 1407 1407 1408 1409 1410 1410 1411 1412 1412 1412 1412 1413 1413 1414 1414 1415 1416 1416 1417 1418 1419 1420 1421 1421 1422 1422 1423 1423 1423 1424 1424 1425 1425
1397 1397 1398 1399 1399 1400 1401 1402 1402 1403 1404 1404 1404 1405 1406 1406 1406 1407 1408 1408 1408 1409 1409 1410 1411 1411 1412 1412 1413 1414 1415 1416 1417 1417 1418 1419 1419 1420 1420 1420 1421 1421 1421
1394 1394 1395 1396 1396 1397 1398 1399 1399 1400 1401 1401 1402 1402 1403 1403 1403 1403 1404 1404 1404 1405 1405 1406 1407 1407 1408 1409 1410 1410 1411 1412 1413 1413 1414 1415 1415 1416 1416 1417 1417 1418 1418
1391 1391 1392 1392 1393 1394 1395 1396 1397 1397 1398 1398 1399 1399 1400 1400 1400 1400 1400 1401 1401 1402 1402 1403 1403 1404 1405 1405 1406 1407 1407 1408 1409 1410 1410 1411 1411 1412 1413 1413 1414 1415 1415
1388 1389 1389 1390 1391 1391 1392 1393 1394 1395 1395 1396 1396 1396 1396 1397 1397 1397 1397 1397 1398 1398 1399 1399 1400 1400 1401 1402 1403 1403 1404 1404 1405 1406 1407 1407 1408 1409 1409 1410 1411 1411 1411
1386 1386 1386 1387 1388 1389 1390 1390 1391 1392 1392 1393 1393 1393 1393 1394 1394 1394 1394 1394 1395 1395 1395 1396 1396 1397 1397 1398 1399 1400 1400 1401 1402 1403 1404 1404 1405 1405 1406 1407 1407 1408 1409
1384 1384 1384 1385 1386 1386 1387 1388 1388 1389 1389 1390 1390 1390 1390 1391 1391 1391 1391 1391 1392 1392 1392 1393 1393 1393 1394 1395 1396 1397 1397 1398 1399 1400 1400 1401 1402 1402 1403 1404 1404 1405 1405
1382 1382 1382 1383 1383 1384 1385 1385 1385 1386 1386 1386 1387 1387 1388 1388 1388 1388 1388 1389 1389 1389 1389 1390 1390 1391 1391 1392 1393 1394 1395 1395 1396 1397 1397 1398 1399 1399 1400 1401 1401 1402 1403